SCP
0 0 0 0 0 0 0 0 0 0 0 0 0 0 0 0 0 0 0 0 0 0 0 0 0 0 0 0 0 0 0 0 0 0 0 0 0 0
0 0 0 0 0 0 0 0 0 0 0 0 0 0 0 0 0 0 0 0 0 0 0 0 0 0 0 0 0 0 0 0 0 0 0 0 0 0
0 0 0 0 0 0 0 0 0 0 0 0 0 0 0 0 0 0 0 0 0 0 0 0 0 0 0 0 0 0 0 0 0 0 0 0 0 0
0 0 0 0 0 0 0 0 0 0 0 0 0 0 0 0 0 0 0 0 0 0 0 0 0 0 0 0 0 0 0 0 0 0 0 0 0 0
0 0 0 0 0 0 0 0 0 0 0 0 0 0 0 0 0 0 0 0 0 0 0 0 0 0 0 0 0 0 0 0 0 0 0 0 0 0
0 0 0 0 0 0 0 0 0 0 0 0 0 0 0 0 0 0 0 0 0 0 0 0 0 0 0 0 0 0 0 0 0 0 0 0 0 0
0 0 0 0 0 0 0 0 0 0 0 0 0 0 0 0 0 0 0 0 0 0 0 0 0 0 0 0 0 0 0 0 0 0 0 0 0 0
0 0 0 0 0 0 0 0 0 0 0 0 0 0 0 0 0 0 0 0 0 0 0 0 0 0 0 0 0 0 0 0 0 0 0 0 0 0
0 0 0 0 0 0 0 0 0 0 0 0 0 0 0 0 0 0 0 0 0 0 0 0 0 0 0 0 0 0 0 0 0 0 0 0 0 0
0 0 0 0 0 0 0 0 0 0 0 0 0 0 0 0 0 0 0 0 0 0 0 0 0 0 0 0 0 0 0 0 0 0 0 0 0 0
0 0 0 0 0 0 0 0 0 0 0 0 0 0 0 0 0 0 0 0 0 0 0 0 0 0 0 0 0 0 0 0 0 0 0 0 0 0
0 0 0 0 0 0 0 0 0 0 0 0 0 0 0 0 0 0 0 0 0 0 0 0 0 0 0 0 0 0 0 0 0 0 0 0 0 0
0 0 0 0 0 0 0 0 0 0 0 0 0 0 0 0 0 0 0 0 0 0 0 0 0 0 0 0 0 0 0 0 0 0 0 0 0 0
0 0 0 0 0 0 0 0 0 0 0 0 0 0 0 0 0 0 0 0 0 0 0 0 0 0 0 0 0 0 0 0 0 0 0 0 0 0
0 0 0 0 0 0 0 0 0 0 0 0 0 0 0 0 0 0 0 0 0 0 0 0 0 0 0 0 0 0 0 0 0 0 0 0 0 0
0 0 0 0 0 0 0 0 0 0 0 0 0 0 0 0 0 0 0 0 0 0 0 0 0 0 0 0 0 0 0 0 0 0 0 0 0 0
0 0 0 0 0 0 0 0 0 0 0 0 0 0 0 0 0 0 0 0 0 0 0 0 0 0 0 0 0 0 0 0 0 0 0 0 0 0
0 0 0 0 0 0 0 0 0 0 0 0 0 0 0 0 0 0 0 0 0 0 0 0 0 0 0 0 0 0 0 0 0 0 0 0 0 0
0 0 0 0 0 0 0 0 0 0 0 0 0 0 0 0 0 0 0 0 0 0 0 0 0 0 0 0 0 0 0 0 0 0 0 0 0 0
0 0 0 0 0 0 0 0 0 0 0 0 0 0 0 0 0 0 0 0 0 0 0 0 0 0 0 0 0 0 0 0 0 0 0 0 0 0
0 0 0 0 0 0 0 0 0 0 0 0 0 0 0 0 0 0 0 0 0 0 0 0 0 0 0 0 0 0 0 0 0 0 0 0 0 0
0 0 0 0 0 0 0 0 0 0 0 0 0 0 0 0 0 0 0 0 0 0 0 0 0 0 0 0 0 0 0 0 0 0 0 0 0 0
0 0 0 0 0 0 0 0 0 0 0 0 0 0 0 0 0 0 0 0 0 0 0 0 0 0 0 0 0 0 0 0 0 0 0 0 0 0
Wind_Speed
2 3 2 1 2 2 2 3 4 3 1 2 1 2 1 1 1 2 2 3 5 5 6 7 8 9 10 11 11 12 12 12 12 12 12 12 12 12
2 3 2 2 2 2 2 2 2 4 2 1 1 1 1 1 1 1 2 3 4 4 4 5 6 7 8 9 10 10 11 11 12 12 12 12 12 11
2 3 3 3 2 2 2 2 2 3 3 0 1 1 2 2 2 2 2 2 2 3 3 4 4 5 6 7 8 9 9 10 10 11 11 11 11 11
2 3 3 3 3 2 2 3 2 2 3 2 1 2 1 1 1 2 2 1 1 3 3 3 4 5 5 5 6 7 8 9 9 10 11 11 11 11
3 3 3 3 3 2 3 3 2 3 2 3 1 1 1 2 2 2 3 2 2 2 3 3 4 5 5 5 5 6 6 7 8 9 9 10 11 11
3 3 3 3 3 3 3 3 3 4 3 3 2 1 1 2 2 2 2 2 2 3 4 4 5 6 7 7 6 6 6 6 7 7 8 9 10 10
3 3 2 4 4 4 4 3 4 3 3 3 2 2 2 1 1 1 1 2 2 2 2 3 2 3 3 5 6 7 7 7 7 7 7 7 8 9
3 2 2 3 4 6 7 7 6 5 4 3 2 1 0 1 0 1 1 2 3 3 2 2 2 2 2 2 6 7 8 8 8 8 8 8 8 8
3 2 2 3 3 3 5 6 4 4 5 4 3 2 1 2 1 1 0 1 1 2 2 2 3 2 2 3 6 7 8 9 9 9 9 9 9 9
2 3 3 2 3 4 4 4 3 3 2 2 2 2 2 1 2 2 1 0 1 2 2 1 3 2 3 2 6 7 8 9 9 9 9 9 9 9
3 3 3 3 4 7 6 5 3 3 4 5 4 3 4 4 4 3 2 2 2 2 2 1 2 2 2 2 4 7 8 8 9 9 10 10 9 8
2 2 3 4 5 7 5 5 4 1 2 3 4 4 4 4 5 3 2 2 1 2 2 1 2 2 3 3 3 3 4 6 8 8 10 10 9 4
3 1 2 5 7 7 6 4 4 3 2 2 2 2 3 2 2 2 2 2 2 1 1 1 1 1 1 3 3 3 2 3 3 5 7 9 8 5
3 2 3 6 7 7 5 5 6 5 3 3 2 2 2 1 1 1 1 1 1 1 0 1 1 1 0 1 3 3 3 3 3 3 4 7 7 7
3 5 6 6 6 5 6 6 5 4 3 3 2 1 1 1 1 2 3 3 3 3 3 1 1 0 1 1 2 2 3 3 3 3 3 3 3 3
3 5 7 7 5 5 5 4 3 3 3 2 1 1 1 2 2 1 1 2 2 3 4 3 2 1 0 1 1 2 2 3 4 3 3 3 3 3
5 3 3 2 2 2 2 2 2 2 2 1 1 1 1 1 1 1 1 1 1 1 3 3 3 2 1 1 1 2 2 3 3 3 3 4 4 4
7 4 3 2 2 2 2 1 1 1 1 1 1 1 1 1 1 1 1 1 1 1 2 2 2 3 3 2 1 1 2 3 3 3 2 3 5 5
5 3 3 3 2 2 2 2 1 1 1 2 1 1 1 1 1 1 1 1 1 1 2 1 2 2 2 4 4 1 2 3 3 3 3 3 4 6
3 3 3 3 3 3 2 2 2 1 1 1 1 1 1 1 1 0 0 0 1 1 2 2 1 1 2 3 3 4 4 3 3 3 4 3 4 6
3 3 3 3 3 3 2 2 2 2 1 1 1 1 0 1 0 0 0 1 1 1 2 2 3 4 2 1 2 3 4 4 4 3 4 4 5 4
4 3 3 3 3 3 2 2 2 2 1 1 1 1 0 1 1 1 0 0 1 1 2 2 3 2 1 1 3 4 5 5 6 7 6 4 3 4
4 4 3 3 3 2 2 3 3 2 1 1 1 1 0 0 0 0 0 0 1 1 2 2 2 2 2 2 2 4 6 6 4 4 5 8 9 10
Wind_Direction
114 110 106 89 90 95 119 137 137 127 335 302 319 320 330 8 12 43 39 51 55 55 50 50 50 49 46 44 42 40 40 40 38 36 34 32 32 31
105 100 89 82 80 79 99 98 115 134 145 268 271 297 335 30 65 40 27 46 43 47 49 52 50 50 48 45 43 39 37 36 34 32 30 28 27 28
96 104 95 93 87 77 83 85 88 110 122 327 340 343 17 21 12 9 15 20 9 26 45 52 46 48 50 47 45 41 37 33 31 29 27 24 23 24
116 108 102 102 87 83 86 84 87 104 126 125 1 1 11 0 359 9 4 18 5 20 34 40 38 37 41 43 44 41 36 32 28 24 22 22 20 20
124 124 123 108 94 89 92 88 83 83 90 115 64 360 357 15 18 10 10 3 9 27 27 25 27 33 36 35 36 35 32 29 25 21 19 19 17 17
119 129 131 129 135 128 109 102 99 88 82 91 71 24 4 356 33 16 359 348 358 16 17 33 30 33 36 37 35 30 25 22 20 19 17 16 15 14
95 103 114 125 134 137 128 126 114 103 96 91 79 45 19 13 353 334 355 334 347 10 2 10 13 16 21 23 26 27 25 21 17 11 9 9 9 8
111 101 99 103 112 115 119 122 125 128 131 121 112 116 266 268 324 26 23 23 347 340 18 347 14 353 355 15 18 22 20 19 17 13 10 7 3 359
134 127 107 97 103 107 102 95 88 100 131 143 144 177 197 219 155 63 60 116 250 313 30 346 351 338 341 14 17 18 16 14 11 11 13 12 9 6
125 134 121 104 110 122 112 96 77 61 90 130 151 177 168 169 162 166 182 137 337 356 46 9 335 324 338 354 16 20 15 10 8 9 11 11 10 10
101 110 122 118 118 123 115 108 86 55 57 77 86 81 76 83 102 87 65 66 13 337 2 46 327 324 333 341 2 13 9 7 7 8 9 10 7 8
89 86 103 117 119 124 124 124 119 106 68 59 50 44 50 59 78 98 122 110 91 327 324 26 340 355 336 326 341 355 359 360 3 4 3 2 3 8
121 116 110 116 115 118 121 128 140 133 102 87 62 42 38 39 39 55 91 123 131 240 300 93 10 3 319 307 323 335 349 342 346 349 352 355 359 9
145 148 129 118 108 107 106 106 108 102 94 84 71 49 39 22 2 23 53 73 120 180 285 110 138 197 262 311 305 317 324 330 343 340 338 347 348 349
142 137 127 119 107 95 91 96 95 95 97 90 81 42 350 356 29 31 24 32 27 22 27 44 98 130 145 227 281 302 314 321 342 337 331 330 325 329
123 116 108 103 92 86 82 81 85 103 115 118 115 41 27 37 36 35 34 23 28 354 354 7 18 77 303 273 266 301 316 317 328 327 319 315 320 323
127 101 93 95 90 79 74 75 79 88 93 94 93 71 50 49 23 23 42 47 49 343 338 347 353 355 289 250 315 312 314 311 309 320 327 321 313 313
125 126 137 146 154 156 145 118 97 113 122 115 105 102 86 60 28 24 41 58 20 325 318 327 348 358 358 344 270 280 307 300 305 315 318 313 309 312
129 144 156 165 165 158 153 147 145 139 123 117 113 115 104 72 55 29 24 21 353 328 324 337 1 20 347 322 312 328 305 305 311 315 308 294 292 302
150 158 167 166 161 160 158 155 144 118 111 116 115 108 112 107 78 26 11 358 330 341 345 347 340 311 273 280 289 305 314 303 306 308 305 300 288 294
168 167 164 159 158 158 155 150 145 142 133 129 126 126 134 124 132 272 274 351 12 358 336 316 298 305 294 340 318 310 308 307 303 301 306 310 313 317
164 163 159 156 156 154 151 147 140 138 140 143 156 169 180 165 193 227 227 269 315 309 303 303 320 344 6 333 310 309 314 319 320 324 320 311 307 307
165 157 152 154 155 151 153 151 148 153 163 167 169 175 148 134 189 217 263 279 306 314 318 322 333 339 326 314 308 309 314 318 320 325 317 321 319 312